Вернуться в каталог

RASSVET-3 9

АктивенНаукаPO
NORAD 68368·PAYLOAD·🇷🇺 Russia

Запущен Mar 23, 2026 с Plesetsk Cosmodrome

Loading…

Ближайшие Пролёты (ближайшие 24 часа)

TLE

СвежийSource: Space-Track

Эпоха: Sep 14, 2026, 01:03 UTC

1 68368U 26061J   26257.04432636  .00001976  00000-0  94705-4 0  9998
2 68368  82.2895 281.6558 0003569  44.5205 315.6315 15.18379396 27044

Отслеживайте RASSVET-3 9 в реальном времени с AllMySat

Download on the App Store